Location: Helsinki
(60.1699°N, 24.9384°E)
Time: 17:26:49
(UTC+02:00)

S-56A Canister/Altair - Pass Details

Date: 30 October 2020
Orbit: 633 x 2500 km, 38.9° (Epoch: 29 November)

Event Time Altitude Azimuth Distance (km) Brightness Sun altitude
Rises 08:06:46 0° 232° (SW) 3,695 10.8 2.2°
Reaches altitude 10° 08:10:19 10° 211° (SSW) 3,042 10.7 2.5°
Maximum altitude 08:14:34 16° 176° (S) 2,966 11.2 2.9°
Drops below altitude 10° 08:19:42 10° 144° (SE) 3,833 12.8 3.5°
Sets 08:25:08 0° 126° (SE) 5,237 15.1 4.0°
